This demonstration page uses our WeatherBlox Daily Observations layout. Learn more.

Left ArrowRight Arrow

44.8408, -93.29828

Hourly Observations for September 1, 2019

Temp ( °F °C ) Dew Point ( °F °C ) Humidity (%) Winds ( mph kmh ) Pressure ( in mb ) Visibility ( mi km ) Precip ( " mm )
12:53 am 00:53 Mostly Clear 61 16.1 55 12.8 81 81 SSE 6 9 30.19 1022 10 16 0.00 0.00
1:53 am 01:53 Clear 60 15.6 55 12.8 84 84 SSE 7 11 30.18 1022 10 16 0.00 0.00
2:53 am 02:53 Cloudy 60 15.6 55 12.8 84 84 SSE 5 7 30.17 1022 10 16 0.00 0.00
3:53 am 03:53 Cloudy 59 15 55 12.8 87 87 SSE 7 11 30.14 1021 10 16 0.00 0.00
4:53 am 04:53 Cloudy 60 15.6 55 12.8 84 84 SE 3 6 30.15 1021 10 16 0.00 0.00
5:53 am 05:53 Cloudy 61 16.1 55 12.8 81 81 VRB 5 7 30.13 1020 10 16 0.00 0.00
6:53 am 06:53 Cloudy 61 16.1 53 11.7 75 75 S 6 9 30.13 1020 10 16 0.00 0.00
7:53 am 07:53 Cloudy 62 16.7 53 11.7 73 73 S 8 13 30.12 1020 10 16 0.00 0.00
8:53 am 08:53 Cloudy 63 17.2 54 12.2 73 73 S 7 11 30.11 1020 10 16 0.00 0.00
9:53 am 09:53 Cloudy 64 17.8 54 12.2 70 70 S 7 11 30.11 1020 10 16 0.00 0.00
10:32 am 10:32 Cloudy with Light Rain 62 16.7 57 13.9 84 84 WSW 5 7 30.11 1020 2 3 0.02 0.51
10:53 am 10:53 Cloudy with Light Rain 61 16.1 57 13.9 87 87 S 6 9 30.10 1019 2 3 0.08 2.03
11:01 am 11:01 Cloudy with Light Rain 61 16.1 58 14.4 90 90 SE 6 9 30.10 1019 2 3 0.01 0.25
11:15 am 11:15 Cloudy 62 16.7 58 14.4 86 86 SSE 3 6 30.10 1019 8 13 0.01 0.25
11:53 am 11:53 Cloudy 64 17.8 59 15 84 84 SE 6 9 30.09 1019 10 16 0.01 0.25
12:53 pm 12:53 Cloudy 68 20 59 15 73 73 S 8 13 30.07 1018 10 16 0.00 0.00
1:53 pm 13:53 Cloudy 71 21.7 59 15 66 66 SSW 7 11 30.06 1018 10 16 0.00 0.00
2:53 pm 14:53 Mostly Cloudy 72 22.2 60 15.6 66 66 WSW 9 15 30.04 1017 10 16 0.00 0.00
3:53 pm 15:53 Cloudy 74 23.3 60 15.6 62 62 SW 7 11 30.03 1017 10 16 0.00 0.00
4:53 pm 16:53 Cloudy 75 23.9 62 16.7 64 64 WSW 10 17 30.02 1017 10 16 0.00 0.00
5:53 pm 17:53 Mostly Cloudy 74 23.3 61 16.1 64 64 SW 10 17 30.02 1017 10 16 0.00 0.00
6:53 pm 18:53 Cloudy 74 23.3 63 17.2 69 69 SW 9 15 30.02 1017 10 16 0.00 0.00
7:13 pm 19:13 Cloudy 74 23.3 63 17.2 69 69 WSW 5 7 30.00 1016 10 16 0.00 0.00
7:33 pm 19:33 Cloudy 73 22.8 63 17.2 71 71 WSW 5 7 30.00 1016 10 16 0.00 0.00
7:53 pm 19:53 Mostly Cloudy 73 22.8 63 17.2 71 71 WSW 3 6 30.01 1016 10 16 0.00 0.00
8:53 pm 20:53 Cloudy 71 21.7 63 17.2 76 76 NW 3 6 30.03 1017 10 16 0.00 0.00
9:38 pm 21:38 Cloudy 71 21.7 64 17.8 79 79 NNW 3 6 30.02 1017 10 16 0.00 0.00
9:53 pm 21:53 Mostly Cloudy 71 21.7 64 17.8 79 79 Calm 30.04 1017 10 16 0.00 0.00
10:53 pm 22:53 Mostly Cloudy 68 20 63 17.2 84 84 NNE 6 9 30.06 1018 10 16 0.00 0.00
11:03 pm 23:03 Mostly Cloudy 68 20 63 17.2 84 84 NNE 5 7 30.04 1017 10 16 0.00 0.00
11:10 pm 23:10 Mostly Cloudy 67 19.4 63 17.2 87 87 N 6 9 30.05 1018 10 16 0.00 0.00
11:53 pm 23:53 Mostly Cloudy 67 19.4 62 16.7 84 84 Calm 30.06 1018 10 16 0.00 0.00

Powered by AerisWeather